Location: Chilton Park
(37.7711°N, 100.0276°W)
Time: 16:35:02
(UTC+00:00)

Cosmos 2227 Rocket - Pass Details

Date: 10 July 2022
Orbit: 840 x 844 km, 71.0° (Epoch: 18 August)

Event Time Altitude Azimuth Distance (km) Brightness Sun altitude
Exits shadow 07:00:49 25° 87° (E) 1,633 3.7 -29.9°
Drops below altitude 10° 07:04:33 10° 47° (NE) 2,467 5.2 -29.8°
Sets 07:07:21 0° 36° (NE) 3,406 6.2 -29.8°
